This demonstration page uses our WeatherBlox Daily Observations layout. Learn more.

Left ArrowRight Arrow

40.92501, -98.34201

Hourly Observations for July 7, 2021

Temp ( °F °C ) Dew Point ( °F °C ) Humidity (%) Winds ( mph kmh ) Pressure ( in mb ) Visibility ( mi km ) Precip ( " mm )
12:53 am 00:53 Cloudy 69 20.6 66 18.9 90 90 N 8 13 30.01 1016 10 16 0.00 0.00
1:01 am 01:01 Cloudy 69 20.6 66 18.9 90 90 NNW 8 13 29.99 1015 10 16 0.00 0.00
1:11 am 01:11 Cloudy 69 20.6 65 18.3 87 87 N 6 9 29.99 1015 10 16 0.00 0.00
1:41 am 01:41 Cloudy 69 20.6 66 18.9 90 90 NNW 6 9 29.99 1015 9 14 0.00 0.00
1:53 am 01:53 Cloudy 68 20 65 18.3 90 90 N 5 7 30.01 1016 8 13 0.00 0.00
2:53 am 02:53 Cloudy 69 20.6 66 18.9 90 90 NW 6 9 29.99 1016 7 11 0.00 0.00
3:01 am 03:01 Cloudy 69 20.6 66 18.9 90 90 NW 7 11 29.97 1015 7 11 0.00 0.00
3:49 am 03:49 Partly Cloudy 68 20 64 18 88 88 NNW 10 17 29.96 1015 7 11 0.00 0.00
3:53 am 03:53 Partly Cloudy 68 20 65 18.3 90 90 NNW 8 13 29.99 1016 7 11 0.00 0.00
4:24 am 04:24 Partly Cloudy with Mist and Fog 67 19.4 65 18.3 93 93 NW 8 13 29.96 1015 5 8 0.00 0.00
4:33 am 04:33 Mostly Cloudy with Mist and Fog 68 20 65 18.3 90 90 NNW 12 19 29.96 1015 5 8 0.00 0.00
4:44 am 04:44 Cloudy with Mist and Fog 68 20 65 18.3 90 90 NNW 9 15 29.96 1015 6 10 0.00 0.00
4:53 am 04:53 Cloudy with Mist and Fog 68 20 65 18.3 90 90 NNW 9 15 30.00 1016 6 10 0.00 0.00
5:09 am 05:09 Cloudy with Mist and Fog 68 20 65 18.3 90 90 NNW 10 17 29.96 1015 6 10 0.00 0.00
5:53 am 05:53 Cloudy 68 20 65 18.3 90 90 NNW 13 20 30.00 1016 10 16 0.00 0.00
6:34 am 06:34 Cloudy 68 20 65 18.3 90 90 N 13 20 29.97 1015 10 16 0.00 0.00
6:50 am 06:50 Cloudy 68 20 64 18 88 88 N 12 19 29.98 1015 10 16 0.00 0.00
6:53 am 06:53 Cloudy 68 20 65 18.3 90 90 N 13 20 30.02 1017 10 16 0.00 0.00
7:09 am 07:09 Cloudy 68 20 64 17.8 87 87 N 13 20 29.99 1016 10 16 0.00 0.00
7:53 am 07:53 Cloudy with Mist and Fog 68 20 64 17.8 87 87 N 13 20 30.04 1017 6 10 0.00 0.00
8:26 am 08:26 Cloudy 67 19.4 64 17.8 91 91 N 17 28 30.00 1016 9 14 0.00 0.00
8:53 am 08:53 Cloudy 68 20 63 17.2 84 84 N 13 20 30.04 1017 10 16 0.00 0.00
9:53 am 09:53 Cloudy 70 21.1 63 17.2 79 79 NNE 10 17 30.04 1017 10 16 0.00 0.00
10:01 am 10:01 Cloudy 69 20.6 63 17.2 81 81 NNE 14 22 30.01 1016 10 16 0.00 0.00
10:41 am 10:41 Cloudy 73 22.8 62 16.7 69 69 N 14 22 29.99 1016 10 16 0.00 0.00
10:53 am 10:53 Cloudy 73 22.8 62 16.7 69 69 N 14 22 30.04 1017 10 16 0.00 0.00
11:14 am 11:14 Cloudy 73 22.8 61 16.1 66 66 N 14 22 29.99 1016 10 16 0.00 0.00
11:50 am 11:50 Cloudy 73 23 61 16 65 65 N 12 19 30.00 1016 10 16 0.00 0.00
11:53 am 11:53 Cloudy 73 22.8 61 16.1 66 66 NNE 13 20 30.05 1018 10 16 0.00 0.00
12:00 pm 12:00 Cloudy 73 22.8 61 16.1 66 66 NNE 13 20 30.00 1016 10 16 0.00 0.00
12:27 pm 12:27 Cloudy 73 22.8 61 16.1 66 66 NNE 14 22 30.00 1016 10 16 0.00 0.00
12:53 pm 12:53 Cloudy 74 23.3 61 16.1 64 64 NNE 13 20 30.05 1018 10 16 0.00 0.00
1:08 pm 13:08 Cloudy 74 23.3 61 16.1 64 64 NNE 12 19 30.00 1016 10 16 0.00 0.00
1:53 pm 13:53 Cloudy 76 24.4 61 16.1 60 60 NNE 12 19 30.04 1017 10 16 0.00 0.00
2:53 pm 14:53 Cloudy 78 25.6 60 15.6 54 54 N 7 11 30.02 1017 10 16 0.00 0.00
3:53 pm 15:53 Cloudy 78 25.6 61 16.1 56 56 NNE 8 13 30.02 1017 10 16 0.00 0.00
4:53 pm 16:53 Cloudy 78 25.6 61 16.1 56 56 N 8 13 30.01 1016 10 16 0.00 0.00
5:53 pm 17:53 Partly Cloudy 78 25.6 61 16.1 56 56 NE 7 11 29.99 1016 10 16 0.00 0.00
6:53 pm 18:53 Sunny 77 25 61 16.1 58 58 NNE 6 9 29.98 1015 10 16 0.00 0.00
7:53 pm 19:53 Sunny 75 23.9 61 16.1 62 62 E 7 11 29.98 1015 10 16 0.00 0.00
8:53 pm 20:53 Sunny 72 22.2 62 16.7 71 71 ENE 5 7 29.98 1015 10 16 0.00 0.00
9:53 pm 21:53 Clear 68 20 62 16.7 81 81 E 6 9 29.99 1016 10 16 0.00 0.00
10:53 pm 22:53 Clear 67 19.4 61 16.1 81 81 ESE 3 6 30.00 1016 10 16 0.00 0.00
11:53 pm 23:53 Clear 66 18.9 61 16.1 84 84 SE 5 7 30.00 1016 8 13 0.00 0.00

Powered by AerisWeather